Location: *
(35.8942°N, 23.3025°E)
Time: 22:58:06
(UTC+00:00)

Cosmos 1331 Rocket - Pass Details

Date: 21 September 2021
Orbit: 750 x 777 km, 74.0° (Epoch: 22 October)

Event Time Altitude Azimuth Distance (km) Brightness Sun altitude
Exits shadow 01:51:46 66° 33° (NNE) 823 4.2 -28.8°
Drops below altitude 10° 01:56:13 10° 19° (NNE) 2,280 6.9 -27.9°
Sets 01:58:35 0° 19° (NNE) 3,206 7.8 -27.5°
